Погода в Тучине

Украина / Ровненская область     50°42′02″N   26°33′56″E
темп.,
°C
ветер,
м/с
пор.,
м/с
влажн.,
%
обл.,
%
осадки,
мм/ч
давл.,
гПа
погр.,
м
13 мая, чт
чт1300:00+7юв35876 0.0 101284
03:00+6юв359290 0.0 101087
06:00+6юв3792100 0.0 1008138
09:00+11юв576817 0.0 1007561
12:00+15юв685991 0.0 10051510
15:00+13ююв7975100 0.1 10051020
18:00+12юв51185100 0.1 1004477
21:00+14ююв6138499 0.9 1003758
14 мая, пт
пт1400:00+12ю6128999 0.2 1004430
03:00+10ююв51193100 0.2 1004358
06:00+10ююв499491 0.0 1004309
09:00+13ю348030 0.0 1004365
12:00+18ю346117 0.2 10041180
15:00+19ююз4561100 2.1 10041373
18:00+15зюз3678100 1.6 1004434
21:00+11юз4890100 1.7 1005183
15 мая, сб
сб1500:00+11юз3789100 0.0 1006217
03:00+10юз3690100 0.0 1007197
06:00+8юз359516 0.0 100797
09:00+10з3897100 0.5 1009481
12:00+12з479093 0.1 1010596
15:00+16з666988 0.6 10101154
18:00+17з466099 0.0 10101319
21:00+12з228242 0.0 101111
16 мая, вс
вс1600:00+10юв228558 0.0 101119
03:00+9ююв358844 0.0 101264
06:00+9юв369071 0.0 101191
09:00+14юв5975100 0.0 1011394
12:00+19ююв686382 0.0 10101158
15:00+20ююв7960100 1.3 10081493
18:00+18ююв5974100 1.4 1008753
21:00+14юз249298 5.3 100779
17 мая, пн
пн1700:00+13ю3109578 1.4 1007310
03:00+12юв2196100 2.3 100715
06:00+12зюз1195100 0.1 100619
09:00+14зсз1189100 0.3 1006385
12:00+15зсз3488100 0.7 1006418
15:00+15зсз4687100 1.6 1005588
18:00+14сз348799 0.2 1005405
21:00+13зюз229442 0.3 100528